Location: Unspecified
(58.7730°N, 5.8460°E)
Time: 22:07:48
(UTC+02:00)

Cosmos 1674 - Visible Passes

Search period start: 21 September 2014 00:00
Search period end: 01 October 2014 00:00
Orbit: 514 x 542 km, 82.5° (Epoch: 21 September)

Date Brightness Start Highest point End Pass type
(mag) Time Alt. Az. Time Alt. Az. Time Alt. Az.
21 Sep 3.3 21:02:01 10° N 21:05:45 39° ENE 21:08:23 17° SE visible
21 Sep 4.4 22:38:10 10° NNW 22:41:40 31° W 22:43:40 20° SW visible
22 Sep 3.4 20:50:59 10° N 20:54:40 37° ENE 20:57:38 14° SE visible
22 Sep 4.3 22:27:05 10° NNW 22:30:38 33° W 22:32:56 18° SW visible
23 Sep 3.5 20:39:56 10° N 20:43:36 35° ENE 20:46:56 12° SE visible
23 Sep 4.2 22:15:59 10° NNW 22:19:36 35° W 22:22:13 16° SSW visible
24 Sep 3.6 20:28:54 10° N 20:32:31 33° ENE 20:36:08 10° SE visible
24 Sep 4.2 22:04:53 10° NNW 22:08:33 37° W 22:11:33 14° SSW visible
25 Sep 3.6 20:17:51 10° N 20:21:25 31° ENE 20:24:59 10° SE visible
25 Sep 4.1 21:53:47 10° NNW 21:57:30 40° W 22:00:55 12° SSW visible
26 Sep 3.7 20:06:48 10° N 20:10:19 30° ENE 20:13:50 10° SE visible
26 Sep 4.0 21:42:41 10° NNW 21:46:27 42° W 21:50:12 10° SSW visible
27 Sep 3.8 19:55:45 10° N 19:59:13 28° ENE 20:02:41 10° SE visible
27 Sep 3.8 21:31:35 10° NNW 21:35:23 45° W 21:39:10 10° SSW visible
28 Sep 3.7 21:20:28 10° NNW 21:24:18 48° W 21:28:08 10° S visible
29 Sep 3.6 21:09:21 10° NNW 21:13:13 52° W 21:17:05 10° S visible
30 Sep 3.5 20:58:14 10° NNW 21:02:08 55° W 21:06:01 10° S visible
